Time,TemperatureF,DewpointF,PressureIn,WindDirection,WindDirectionDegrees,WindSpeedMPH,WindSpeedGustMPH,Humidity,HourlyPrecipIn,Conditions,Clouds,dailyrainin,SoftwareType,DateUTC
2013-04-05 00:02:00,40.0,26.0,29.97,WNW,287,0.0,0.0,56,0.00,,,0.00,,2013-04-05 04:02:00,
2013-04-05 00:12:00,40.0,26.0,29.97,WNW,287,0.0,0.0,56,0.00,,,0.00,,2013-04-05 04:12:00,
2013-04-05 00:22:00,40.0,25.0,29.96,WNW,287,0.0,1.0,55,0.00,,,0.00,,2013-04-05 04:22:00,
2013-04-05 00:32:00,40.0,26.0,29.96,WNW,287,0.0,1.0,57,0.00,,,0.00,,2013-04-05 04:32:00,
2013-04-05 00:42:00,40.0,26.0,29.96,WNW,287,0.0,1.0,57,0.00,,,0.00,,2013-04-05 04:42:00,
2013-04-05 00:52:00,39.0,25.0,29.96,WNW,287,0.0,1.0,58,0.00,,,0.00,,2013-04-05 04:52:00,
2013-04-05 01:02:00,40.0,24.0,29.96,WNW,287,0.0,1.0,53,0.00,,,0.00,,2013-04-05 05:02:00,
2013-04-05 01:12:00,40.0,24.0,29.96,WNW,287,0.0,1.0,53,0.00,,,0.00,,2013-04-05 05:12:00,
2013-04-05 01:22:00,41.0,24.0,29.95,West,272,0.0,2.0,51,0.00,,,0.00,,2013-04-05 05:22:00,
2013-04-05 01:32:00,41.0,25.0,29.95,West,271,0.0,3.0,52,0.00,,,0.00,,2013-04-05 05:32:00,
2013-04-05 01:42:00,41.0,25.0,29.95,West,271,0.0,3.0,52,0.00,,,0.00,,2013-04-05 05:42:00,
2013-04-05 01:52:00,40.0,25.0,29.95,West,271,0.0,1.0,55,0.00,,,0.00,,2013-04-05 05:52:00,
2013-04-05 02:02:00,40.0,26.0,29.95,West,271,0.0,1.0,58,0.00,,,0.00,,2013-04-05 06:02:00,
2013-04-05 02:12:00,40.0,26.0,29.95,West,271,0.0,1.0,58,0.00,,,0.00,,2013-04-05 06:12:00,
2013-04-05 02:22:00,40.0,26.0,29.95,West,271,0.0,1.0,58,0.00,,,0.00,,2013-04-05 06:22:00,
2013-04-05 02:32:00,40.0,24.0,29.95,NNW,331,1.0,4.0,52,0.00,,,0.00,,2013-04-05 06:32:00,
2013-04-05 02:42:00,40.0,24.0,29.95,NNW,331,1.0,4.0,52,0.00,,,0.00,,2013-04-05 06:42:00,
2013-04-05 02:52:00,43.0,28.0,29.96,NNE,30,0.0,3.0,55,0.00,,,0.00,,2013-04-05 06:52:00,
2013-04-05 03:02:00,44.0,30.0,29.96,NE,43,0.0,2.0,57,0.00,,,0.00,,2013-04-05 07:02:00,
2013-04-05 03:12:00,44.0,30.0,29.96,NE,43,0.0,2.0,57,0.00,,,0.00,,2013-04-05 07:12:00,
2013-04-05 03:22:00,44.0,30.0,29.96,NNE,31,0.0,2.0,58,0.00,,,0.00,,2013-04-05 07:22:00,
2013-04-05 03:32:00,44.0,31.0,29.96,North,360,0.0,2.0,60,0.00,,,0.00,,2013-04-05 07:32:00,
2013-04-05 03:42:00,44.0,31.0,29.96,North,360,0.0,2.0,60,0.00,,,0.00,,2013-04-05 07:42:00,
2013-04-05 03:52:00,44.0,31.0,29.96,North,360,0.0,2.0,60,0.00,,,0.00,,2013-04-05 07:52:00,
2013-04-05 04:02:00,42.0,31.0,29.96,North,355,0.0,1.0,64,0.00,,,0.00,,2013-04-05 08:02:00,
2013-04-05 04:13:00,42.0,31.0,29.96,North,355,0.0,1.0,64,0.00,,,0.00,,2013-04-05 08:13:00,
2013-04-05 04:22:00,41.0,30.0,29.97,North,360,0.0,1.0,65,0.00,,,0.00,,2013-04-05 08:22:00,
2013-04-05 04:32:00,40.0,31.0,29.97,North,9,0.0,1.0,69,0.00,,,0.00,,2013-04-05 08:32:00,
2013-04-05 04:43:00,40.0,31.0,29.97,North,9,0.0,1.0,69,0.00,,,0.00,,2013-04-05 08:43:00,
2013-04-05 04:52:00,40.0,32.0,29.97,North,355,0.0,2.0,72,0.00,,,0.00,,2013-04-05 08:52:00,
2013-04-05 05:02:00,40.0,32.0,29.98,North,9,0.0,1.0,72,0.00,,,0.00,,2013-04-05 09:02:00,
2013-04-05 05:12:00,40.0,32.0,29.98,North,9,0.0,1.0,72,0.00,,,0.00,,2013-04-05 09:12:00,
2013-04-05 05:22:00,39.0,31.0,29.98,North,360,0.0,1.0,72,0.00,,,0.00,,2013-04-05 09:22:00,
2013-04-05 05:33:00,39.0,31.0,29.99,North,9,0.0,1.0,73,0.00,,,0.00,,2013-04-05 09:33:00,
2013-04-05 05:42:00,39.0,31.0,29.99,North,9,0.0,1.0,73,0.00,,,0.00,,2013-04-05 09:42:00,
2013-04-05 05:52:00,39.0,31.0,29.99,North,355,0.0,2.0,74,0.00,,,0.00,,2013-04-05 09:52:00,
2013-04-05 06:03:00,39.0,31.0,29.99,North,355,0.0,2.0,74,0.00,,,0.00,,2013-04-05 10:03:00,
2013-04-05 06:13:00,39.0,31.0,29.99,North,355,0.0,2.0,74,0.00,,,0.00,,2013-04-05 10:13:00,
2013-04-05 06:23:00,39.0,31.0,30.01,North,355,0.0,1.0,74,0.00,,,0.00,,2013-04-05 10:23:00,
2013-04-05 06:33:00,38.0,31.0,30.01,NNE,24,0.0,3.0,76,0.00,,,0.00,,2013-04-05 10:33:00,
2013-04-05 06:42:00,38.0,31.0,30.01,NNE,24,0.0,3.0,76,0.00,,,0.00,,2013-04-05 10:42:00,
2013-04-05 06:52:00,37.0,31.0,30.02,North,349,0.0,2.0,78,0.00,,,0.00,,2013-04-05 10:52:00,
2013-04-05 07:02:00,37.0,31.0,30.03,North,5,0.0,1.0,79,0.00,,,0.00,,2013-04-05 11:02:00,
2013-04-05 07:13:00,37.0,31.0,30.03,North,5,0.0,1.0,79,0.00,,,0.00,,2013-04-05 11:13:00,
2013-04-05 07:22:00,36.0,30.0,30.04,NNW,333,0.0,1.0,79,0.00,,,0.00,,2013-04-05 11:22:00,
2013-04-05 07:33:00,35.0,29.0,30.05,NNW,343,0.0,1.0,80,0.00,,,0.00,,2013-04-05 11:33:00,
2013-04-05 07:42:00,35.0,29.0,30.05,NNW,343,0.0,1.0,80,0.00,,,0.00,,2013-04-05 11:42:00,
2013-04-05 07:52:00,35.0,30.0,30.06,North,355,0.0,1.0,82,0.00,,,0.00,,2013-04-05 11:52:00,
2013-04-05 08:02:00,37.0,30.0,30.07,North,5,3.0,10.0,77,0.00,,,0.00,,2013-04-05 12:02:00,
2013-04-05 08:12:00,37.0,30.0,30.07,North,5,3.0,10.0,77,0.00,,,0.00,,2013-04-05 12:12:00,
2013-04-05 08:22:00,38.0,31.0,30.08,NNE,26,1.0,6.0,75,0.00,,,0.00,,2013-04-05 12:22:00,
2013-04-05 08:32:00,38.0,29.0,30.09,NE,45,2.0,9.0,71,0.00,,,0.00,,2013-04-05 12:32:00,
2013-04-05 08:42:00,38.0,29.0,30.09,NE,45,2.0,9.0,71,0.00,,,0.00,,2013-04-05 12:42:00,
2013-04-05 08:52:00,39.0,30.0,30.10,North,355,2.0,9.0,69,0.00,,,0.00,,2013-04-05 12:52:00,
2013-04-05 09:02:00,40.0,30.0,30.10,NNW,332,2.0,7.0,67,0.00,,,0.00,,2013-04-05 13:02:00,
2013-04-05 09:12:00,40.0,30.0,30.10,NNW,332,2.0,7.0,67,0.00,,,0.00,,2013-04-05 13:12:00,
2013-04-05 09:22:00,40.0,29.0,30.11,West,280,4.0,12.0,64,0.00,,,0.00,,2013-04-05 13:22:00,
2013-04-05 09:32:00,41.0,29.0,30.11,NNE,30,3.0,8.0,61,0.00,,,0.00,,2013-04-05 13:32:00,
2013-04-05 09:42:00,41.0,29.0,30.11,NNE,30,3.0,8.0,61,0.00,,,0.00,,2013-04-05 13:42:00,
2013-04-05 09:52:00,41.0,27.0,30.12,North,355,4.0,12.0,58,0.00,,,0.00,,2013-04-05 13:52:00,
2013-04-05 10:03:00,41.0,26.0,30.12,WNW,300,5.0,13.0,55,0.00,,,0.00,,2013-04-05 14:03:00,
2013-04-05 10:12:00,41.0,26.0,30.12,WNW,300,5.0,13.0,55,0.00,,,0.00,,2013-04-05 14:12:00,
2013-04-05 10:22:00,42.0,27.0,30.13,North,350,5.0,12.0,55,0.00,,,0.00,,2013-04-05 14:22:00,
2013-04-05 10:36:00,42.0,27.0,30.13,WNW,301,3.0,10.0,54,0.00,,,0.00,,2013-04-05 14:36:00,
2013-04-05 10:43:00,42.0,27.0,30.13,WNW,301,3.0,10.0,54,0.00,,,0.00,,2013-04-05 14:43:00,
2013-04-05 10:52:00,44.0,28.0,30.14,North,360,3.0,12.0,52,0.00,,,0.00,,2013-04-05 14:52:00,
2013-04-05 11:02:00,45.0,27.0,30.14,NNE,23,3.0,8.0,50,0.00,,,0.00,,2013-04-05 15:02:00,
2013-04-05 11:12:00,45.0,27.0,30.14,NNE,23,3.0,8.0,50,0.00,,,0.00,,2013-04-05 15:12:00,
2013-04-05 11:23:00,45.0,28.0,30.14,ESE,119,3.0,10.0,51,0.00,,,0.00,,2013-04-05 15:23:00,
2013-04-05 11:33:00,46.0,27.0,30.14,NW,325,2.0,9.0,48,0.00,,,0.00,,2013-04-05 15:33:00,
2013-04-05 11:42:00,46.0,27.0,30.14,NW,325,2.0,9.0,48,0.00,,,0.00,,2013-04-05 15:42:00,
2013-04-05 11:53:00,47.0,28.0,30.15,WNW,294,1.0,11.0,47,0.00,,,0.00,,2013-04-05 15:53:00,
2013-04-05 12:02:00,47.0,28.0,30.15,NNW,344,1.0,10.0,47,0.00,,,0.00,,2013-04-05 16:02:00,
2013-04-05 12:13:00,47.0,28.0,30.15,NNW,344,1.0,10.0,47,0.00,,,0.00,,2013-04-05 16:13:00,
2013-04-05 12:23:00,47.0,28.0,30.15,NNW,344,1.0,10.0,47,0.00,,,0.00,,2013-04-05 16:23:00,
2013-04-05 12:33:00,49.0,27.0,30.15,NNE,24,1.0,8.0,43,0.00,,,0.00,,2013-04-05 16:33:00,
2013-04-05 12:43:00,49.0,27.0,30.15,NNE,24,1.0,8.0,43,0.00,,,0.00,,2013-04-05 16:43:00,
2013-04-05 12:53:00,50.0,27.0,30.15,NNW,331,3.0,9.0,40,0.00,,,0.00,,2013-04-05 16:53:00,
2013-04-05 13:03:00,52.0,28.0,30.15,NNE,19,1.0,7.0,39,0.00,,,0.00,,2013-04-05 17:03:00,
2013-04-05 13:13:00,52.0,28.0,30.15,NNE,19,1.0,7.0,39,0.00,,,0.00,,2013-04-05 17:13:00,
2013-04-05 13:23:00,54.0,27.0,30.16,NNE,22,1.0,5.0,35,0.00,,,0.00,,2013-04-05 17:23:00,
2013-04-05 13:32:00,53.0,25.0,30.15,NNW,341,0.0,6.0,34,0.00,,,0.00,,2013-04-05 17:32:00,
2013-04-05 13:45:00,53.0,25.0,30.15,NNW,341,0.0,6.0,34,0.00,,,0.00,,2013-04-05 17:45:00,
2013-04-05 13:52:00,53.0,24.0,30.14,NNW,339,1.0,7.0,32,0.00,,,0.00,,2013-04-05 17:52:00,
2013-04-05 14:02:00,54.0,25.0,30.14,NNE,28,2.0,8.0,32,0.00,,,0.00,,2013-04-05 18:02:00,
2013-04-05 14:12:00,54.0,25.0,30.14,NNE,28,2.0,8.0,32,0.00,,,0.00,,2013-04-05 18:12:00,
2013-04-05 14:22:00,54.0,23.0,30.14,NNW,342,1.0,10.0,30,0.00,,,0.00,,2013-04-05 18:22:00,
2013-04-05 14:33:00,54.0,24.0,30.14,NNW,329,2.0,8.0,31,0.00,,,0.00,,2013-04-05 18:33:00,
2013-04-05 14:43:00,54.0,24.0,30.14,NNW,329,2.0,8.0,31,0.00,,,0.00,,2013-04-05 18:43:00,
2013-04-05 14:52:00,55.0,23.0,30.13,NNE,18,1.0,6.0,29,0.00,,,0.00,,2013-04-05 18:52:00,
2013-04-05 15:02:00,56.0,23.0,30.13,North,360,1.0,4.0,28,0.00,,,0.00,,2013-04-05 19:02:00,
2013-04-05 15:13:00,56.0,23.0,30.13,North,360,1.0,4.0,28,0.00,,,0.00,,2013-04-05 19:13:00,
2013-04-05 15:23:00,54.0,21.0,30.12,NNW,344,2.0,8.0,27,0.00,,,0.00,,2013-04-05 19:23:00,
2013-04-05 15:33:00,54.0,21.0,30.12,NNW,344,2.0,8.0,27,0.00,,,0.00,,2013-04-05 19:33:00,
2013-04-05 15:42:00,54.0,21.0,30.12,NNW,344,2.0,8.0,27,0.00,,,0.00,,2013-04-05 19:42:00,
2013-04-05 16:22:00,55.0,21.0,30.10,NE,38,0.0,3.0,26,0.00,,,0.00,,2013-04-05 20:22:00,
2013-04-05 16:33:00,55.0,21.0,30.10,NE,38,0.0,3.0,26,0.00,,,0.00,,2013-04-05 20:33:00,
2013-04-05 16:42:00,55.0,21.0,30.10,NE,38,0.0,3.0,26,0.00,,,0.00,,2013-04-05 20:42:00,
2013-04-05 16:52:00,55.0,26.0,30.09,NNW,348,1.0,5.0,32,0.00,,,0.00,,2013-04-05 20:52:00,
2013-04-05 17:02:00,54.0,26.0,30.09,NNE,19,2.0,6.0,33,0.00,,,0.00,,2013-04-05 21:02:00,
2013-04-05 17:13:00,54.0,26.0,30.09,NNE,19,2.0,6.0,33,0.00,,,0.00,,2013-04-05 21:13:00,
2013-04-05 17:23:00,55.0,25.0,30.09,NNE,17,1.0,4.0,31,0.00,,,0.00,,2013-04-05 21:23:00,
2013-04-05 17:33:00,54.0,24.0,30.09,NNW,329,1.0,4.0,31,0.00,,,0.00,,2013-04-05 21:33:00,
2013-04-05 17:43:00,54.0,24.0,30.09,NNW,329,1.0,4.0,31,0.00,,,0.00,,2013-04-05 21:43:00,
2013-04-05 17:53:00,53.0,25.0,30.10,NNW,340,2.0,7.0,33,0.00,,,0.00,,2013-04-05 21:53:00,
2013-04-05 18:03:00,52.0,25.0,30.11,South,169,2.0,6.0,35,0.00,,,0.00,,2013-04-05 22:03:00,
2013-04-05 18:13:00,52.0,25.0,30.11,South,169,2.0,6.0,35,0.00,,,0.00,,2013-04-05 22:13:00,
2013-04-05 18:23:00,50.0,24.0,30.11,NNW,340,1.0,5.0,36,0.00,,,0.00,,2013-04-05 22:23:00,
2013-04-05 18:33:00,49.0,24.0,30.11,NNE,17,2.0,5.0,37,0.00,,,0.00,,2013-04-05 22:33:00,
2013-04-05 18:43:00,49.0,24.0,30.11,NNE,17,2.0,5.0,37,0.00,,,0.00,,2013-04-05 22:43:00,
2013-04-05 18:52:00,49.0,25.0,30.11,North,9,2.0,5.0,39,0.00,,,0.00,,2013-04-05 22:52:00,
2013-04-05 19:02:00,47.0,25.0,30.12,North,355,1.0,4.0,41,0.00,,,0.00,,2013-04-05 23:02:00,
2013-04-05 19:12:00,47.0,25.0,30.12,North,355,1.0,4.0,41,0.00,,,0.00,,2013-04-05 23:12:00,
2013-04-05 19:22:00,46.0,25.0,30.13,East,86,1.0,4.0,43,0.00,,,0.00,,2013-04-05 23:22:00,
2013-04-05 19:32:00,46.0,25.0,30.14,NE,40,2.0,4.0,43,0.00,,,0.00,,2013-04-05 23:32:00,
2013-04-05 19:42:00,46.0,25.0,30.14,NE,40,2.0,4.0,43,0.00,,,0.00,,2013-04-05 23:42:00,
2013-04-05 19:52:00,44.0,25.0,30.15,North,355,1.0,5.0,46,0.00,,,0.00,,2013-04-05 23:52:00,
2013-04-05 20:02:00,43.0,25.0,30.15,North,5,1.0,4.0,48,0.00,,,0.00,,2013-04-06 00:02:00,
2013-04-05 20:13:00,43.0,25.0,30.15,North,5,1.0,4.0,48,0.00,,,0.00,,2013-04-06 00:13:00,
2013-04-05 20:23:00,42.0,25.0,30.14,North,355,0.0,4.0,51,0.00,,,0.00,,2013-04-06 00:23:00,
2013-04-05 20:33:00,41.0,25.0,30.15,North,10,1.0,3.0,53,0.00,,,0.00,,2013-04-06 00:33:00,
2013-04-05 20:42:00,41.0,25.0,30.15,North,10,1.0,3.0,53,0.00,,,0.00,,2013-04-06 00:42:00,
2013-04-05 20:52:00,40.0,25.0,30.16,North,360,0.0,3.0,55,0.00,,,0.00,,2013-04-06 00:52:00,
2013-04-05 21:02:00,39.0,25.0,30.15,NNE,27,0.0,2.0,58,0.00,,,0.00,,2013-04-06 01:02:00,
2013-04-05 21:13:00,39.0,25.0,30.15,NNE,27,0.0,2.0,58,0.00,,,0.00,,2013-04-06 01:13:00,
2013-04-05 21:22:00,38.0,25.0,30.16,North,360,0.0,1.0,60,0.00,,,0.00,,2013-04-06 01:22:00,
2013-04-05 21:32:00,37.0,25.0,30.16,North,360,0.0,1.0,62,0.00,,,0.00,,2013-04-06 01:32:00,
2013-04-05 21:43:00,37.0,25.0,30.16,North,360,0.0,1.0,62,0.00,,,0.00,,2013-04-06 01:43:00,
2013-04-05 21:52:00,36.0,25.0,30.17,North,360,0.0,1.0,64,0.00,,,0.00,,2013-04-06 01:52:00,
2013-04-05 22:02:00,35.0,25.0,30.17,North,355,0.0,1.0,66,0.00,,,0.00,,2013-04-06 02:02:00,
2013-04-05 22:12:00,35.0,25.0,30.17,North,355,0.0,1.0,66,0.00,,,0.00,,2013-04-06 02:12:00,
2013-04-05 22:22:00,35.0,26.0,30.18,NNW,342,0.0,2.0,68,0.00,,,0.00,,2013-04-06 02:22:00,
2013-04-05 22:32:00,35.0,26.0,30.18,NNW,341,0.0,3.0,70,0.00,,,0.00,,2013-04-06 02:32:00,
2013-04-05 22:42:00,35.0,26.0,30.18,NNW,341,0.0,3.0,70,0.00,,,0.00,,2013-04-06 02:42:00,
2013-04-05 22:52:00,34.0,26.0,30.19,North,350,0.0,1.0,72,0.00,,,0.00,,2013-04-06 02:52:00,
2013-04-05 23:02:00,34.0,26.0,30.18,North,5,0.0,2.0,73,0.00,,,0.00,,2013-04-06 03:02:00,
2013-04-05 23:12:00,34.0,26.0,30.18,North,5,0.0,2.0,73,0.00,,,0.00,,2013-04-06 03:12:00,
2013-04-05 23:22:00,34.0,26.0,30.18,North,360,0.0,1.0,73,0.00,,,0.00,,2013-04-06 03:22:00,
2013-04-05 23:33:00,33.0,26.0,30.17,North,355,0.0,1.0,74,0.00,,,0.00,,2013-04-06 03:33:00,
2013-04-05 23:43:00,33.0,26.0,30.17,North,355,0.0,1.0,74,0.00,,,0.00,,2013-04-06 03:43:00,
2013-04-05 23:53:00,33.0,26.0,30.16,North,360,0.0,1.0,76,0.00,,,0.00,,2013-04-06 03:53:00,